Abilene Dyess, TX

11:04 AM CST on December 07, 2019 (GMT -0600)
Dyess Air Force Base

Weather History for KDYS - November, 2019

Change the Weather History Date:

Wednesday, November 13, 2019

  Actual Average Record
Temperature  
Mean Temperature 38 °F -  
Max Temperature 52 °F 64 °F 82 °F (1999)
Min Temperature 23 °F 45 °F 19 °F (2013)
Degree Days  
Heating Degree Days 28    
Moisture  
Dew Point 22 °F    
Average Humidity 51    
Maximum Humidity 78    
Minimum Humidity 28    
Precipitation  
Precipitation 0.00 in - - ()
Sea Level Pressure  
Sea Level Pressure 30.13 in    
Wind  
Wind Speed 10 mph (South)    
Max Wind Speed 21 mph    
Max Gust Speed 28 mph    
Visibility 10 miles    
Events      
Averages and records for this station are not official NWS values.
T = Trace of Precipitation, MM = Missing Value Source: NWS Daily Summary

Daily Weather History Graph

Daily Weather History Graph

Search for Another Location

Airport or City:

Astronomy

Nov. 13, 2019 Rise Set
Actual Time 7:06 AM CST 5:40 PM CST
Civil Twilight 6:40 AM CST 6:05 PM CST
Nautical Twilight 6:11 AM CST 6:35 PM CST
Astronomical Twilight 5:42 AM CST 7:04 PM CST
Moon 6:46 PM CST (11/13) 8:01 AM CST (11/13)
Length of Visible Light 11h 25m
Length of Day
10h 33m
Full, 99% of the Moon is Illuminated
Nov 13
Full
Nov 19
Last Quarter
Nov 26
New
Dec 4
First Quarter
Dec 11
Full

Hourly Weather History & Observations

Time (CST) Temp. Windchill Dew Point Humidity Pressure Visibility Wind Dir Wind Speed Gust Speed Precip Events Conditions
12:56 AM 23.5 °F 17.6 °F 12.7 °F 63% 30.36 in 10.0 mi SE 4.6 mph - N/A   Clear
1:56 AM 25.5 °F - 12.7 °F 58% 30.32 in 10.0 mi Calm Calm - N/A   Clear
2:56 AM 28.4 °F 18.0 °F 11.7 °F 50% 30.31 in 10.0 mi South 12.7 mph - N/A   Clear
3:56 AM 28.8 °F 17.9 °F 12.0 °F 50% 30.30 in 10.0 mi South 13.8 mph - N/A   Clear
4:56 AM 28.0 °F 18.6 °F 12.2 °F 52% 30.25 in 10.0 mi SSE 10.4 mph - N/A   Clear
5:56 AM 26.6 °F 19.1 °F 12.9 °F 56% 30.22 in 10.0 mi SSE 6.9 mph - N/A   Clear
7:56 AM 30.9 °F 22.2 °F 14.4 °F 50% 30.19 in 10.0 mi SSE 10.4 mph - N/A   Clear
8:56 AM 35.8 °F 28.3 °F 15.4 °F 44% 30.17 in 10.0 mi SSE 10.4 mph - N/A   Clear
9:56 AM 38.8 °F 29.1 °F 15.4 °F 39% 30.17 in 10.0 mi South 19.6 mph - N/A   Clear
10:56 AM 41.4 °F 33.0 °F 17.1 °F 38% 30.17 in 10.0 mi South 17.3 mph 20.7 mph N/A   Partly Cloudy
11:56 AM 46.4 °F 40.1 °F 18.9 °F 33% 30.11 in 10.0 mi South 15.0 mph - N/A   Partly Cloudy
12:56 PM 52.9 °F - 20.7 °F 28% 30.05 in 10.0 mi South 17.3 mph 27.6 mph N/A   Partly Cloudy
1:56 PM 52.3 °F - 24.1 °F 33% 30.02 in 10.0 mi South 17.3 mph 24.2 mph N/A   Clear
2:56 PM 51.8 °F - 27.0 °F 38% 29.99 in 10.0 mi South 17.3 mph - N/A   Clear
3:56 PM 50.0 °F - 27.9 °F 42% 29.98 in 10.0 mi South 20.7 mph - N/A   Clear
4:56 PM 49.6 °F - 29.1 °F 45% 29.99 in 10.0 mi South 12.7 mph - N/A   Clear
5:56 PM 46.2 °F 41.2 °F 30.9 °F 55% 30.02 in 10.0 mi South 10.4 mph - N/A   Clear
6:56 PM 45.0 °F 41.8 °F 31.5 °F 59% 30.04 in 10.0 mi South 5.8 mph - N/A   Clear
7:56 PM 44.6 °F 40.2 °F 32.7 °F 63% 30.04 in 10.0 mi South 8.1 mph - N/A   Clear
9:56 PM 41.0 °F 37.1 °F 32.7 °F 72% 30.07 in 10.0 mi South 5.8 mph - N/A   Clear
10:56 PM 37.8 °F - 31.5 °F 78% 30.09 in 10.0 mi Calm Calm - N/A   Clear
11:56 PM 37.9 °F 35.5 °F 31.1 °F 76% 30.08 in 10.0 mi South 3.5 mph - N/A   Clear